THORAD AGENA D DEB, 4744

Orbit data source: Space-Track

THORAD AGENA D DEB, 4744 is space debris in SSO originally from a launch on Wed, 08 Apr 1970 UTC launched from the Air Force Western Test Range (AFWTR). Debris objects in space refer to the collection of defunct objects orbiting the Earth. Examples of debris include non-operational satellites, rocket bodies, and fragments generated from explosions, collisions, or faulty payload assembly.

Loading next visibility...
Identifier
4744, 1970-025CT
Orbit
SSO
Country
Flag of USUS
Related business
Manufacturer
Unknown
Mission
Spacecraft
Bus & Motor
Unknown
Mass
Unknown
Launch date (UTC)
1970-04-08 (56 years ago)
Launch vehicle
Unknown
Launch site
Air Force Western Test Range (AFWTR)
Object type
Payload
Rocket body
Debris
Shape & HBR
Unknown shape, 0.3 m
Radar Cross Section
Medium (>0.1 m² and <1 m²)

Expand to show TLE details & history
Last TLE update: 12 hours ago

TLE from 12 hours ago
0 THORAD AGENA D DEB
1 04744U 70025CT  26237.32531583 -.00000070  00000-0 -32480-4 0  9993
2 04744 100.1290 273.6048 0016564  69.7018 290.5897 13.56869936784642
Epoch: 2026-08-25T07:48Z
TLE epoch observation values (Epoch: 2026-08-25T07:48:27.287Z)
Latitude
-0.00005°
Longitude
-177.10317°
Altitude
1,045.561 km
Speed
7.331 km/s
True Right ascension
18h 14m 25s
True Declination
0° 00' 00"
Sunlit
Object was in daylight at epoch
Visualization orbit readout
Latitude
Unknown
Longitude
Unknown
Altitude
Unknown
Speed
Unknown
Apparent Right ascension
Unknown
Apparent Declination
Unknown
Sunlit
N/A
Visualization observer readout
Local Sidereal Time
11:06:55
Azimuth
Unknown
Elevation
Unknown
Doppler factor
Unknown
Orbital elements
Apogee altitude
1,056.699 km
Perigee altitude
1,032.109 km
Semi-major axis
7,422.541 km
Eccentricity
0.00166
Inclination
100.129°
RAAN
273.6048°
Arg. of periapsis
69.7018°
True anomaly
290.41189°
Mean anomaly
290.5897°
Eccentric anomaly
290.50081°
Mean motion
3.39402 °/min
Orbital period
106.07 mins
BSTAR
-0.00003248

Documentation

Showing up to 5 results
|